Погода в Иване-Пусте

Украина / Тернопольская область     48°38′37″N   26°11′24″E
темп.,
°C
ветер,
м/с
пор.,
м/с
влажн.,
%
обл.,
%
осадки,
мм/ч
давл.,
гПа
погр.,
м
22 января, сб
сб2223:00−3зсз91577100 0.0 1014893
02:00−4зсз81483100 0.0 1013868
05:00−4зсз71387100 0.1 1013776
08:00−4зсз71286100 0.1 1013757
11:00−4зсз71177100 0.1 1015784
14:00−3зсз71291100 0.3 10141005
17:00−3ссз6108584 0.6 1016681
20:00−5сз61288100 0.6 1019588
23 января, вс
вс2323:00−5зсз61294100 0.2 1021864
02:00−5зсз81393100 0.9 1020784
05:00−5сз71286100 0.8 1020995
08:00−5ссз51092100 1.1 1020956
11:00−4ссз71086100 0.4 1021974
14:00−5ссв7977100 0.6 10231042
17:00−7с61087100 0.1 1027874
20:00−8ссв61190100 0.2 1030634
24 января, пн
пн2423:00−9с499250 0.1 1032331
02:00−10ссз479455 0.1 1034232
05:00−11ссз489371 0.0 1035268
08:00−11сз379469 0.1 1037222
11:00−9ссз5687100 0.0 1037357
14:00−7сз6883100 0.1 1036549
17:00−8сз5109149 0.0 1036344
20:00−9сз4993100 0.0 1036296
25 января, вт
вт2523:00−10сз499441 0.0 1035245
02:00−11сз389492 0.0 1034205
05:00−11зсз25955 0.0 1033129
08:00−12зсз269512 0.0 1033122
11:00−8зсз46785 0.0 1030242
14:00−5зсз4668100 0.0 1027304
17:00−7з2485100 0.0 102691
20:00−5зюз31196100 1.3 1024417
26 января, ср
ср2623:00−3зсз61495100 1.5 1022643
02:00−2зсз8159098 1.8 1022627
05:00−3зсз6149497 0.1 1022548
08:00−2сз8138998 0.2 1023689
11:00−3сз81183100 0.1 10241029
14:00−3сз8128193 0.2 10251142
17:00−5сз7138485 0.0 1025552
20:00−6зсз6138943 0.1 1026464